| time (UTC) | temp F | wind direction | speed MPH | gust MPH | rain 1hr in | rain 24hr in | rain mn in | humidity % | barometer mb |
| 20260508134552 | 50 | 328 | 7.0 | 15.0 | 0.00 | 0.00 | 0.00 | 50 | 1009.0 |
| 20260508133057 | 50 | 246 | 6.0 | 12.0 | 0.00 | 0.00 | 0.00 | 50 | 1009.0 |
| 20260508131549 | 49 | 289 | 6.0 | 13.0 | 0.00 | 0.00 | 0.00 | 51 | 1009.1 |
| 20260508130047 | 49 | 238 | 7.0 | 16.0 | 0.00 | 0.00 | 0.00 | 53 | 1009.1 |
| 20260508124554 | 48 | 281 | 7.0 | 16.0 | 0.00 | 0.00 | 0.00 | 53 | 1009.1 |
| 20260508123052 | 47 | 251 | 8.0 | 13.0 | 0.00 | 0.00 | 0.00 | 53 | 1009.0 |
| 20260508121548 | 46 | 236 | 5.0 | 9.0 | 0.00 | 0.00 | 0.00 | 60 | 1009.0 |
| 20260508120108 | 45 | 292 | 5.0 | 9.0 | 0.00 | 0.00 | 0.00 | 63 | 1009.1 |
| 20260508114600 | 44 | 267 | 2.0 | 6.0 | 0.00 | 0.00 | 0.00 | 65 | 1009.1 |
| 20260508113101 | 42 | 230 | 3.0 | 5.0 | 0.00 | 0.00 | 0.00 | 67 | 1009.1 |
| 20260508111553 | 42 | 290 | 2.0 | 6.0 | 0.00 | 0.00 | 0.00 | 67 | 1009.0 |
| 20260508104600 | 41 | 255 | 3.0 | 6.0 | 0.00 | 0.00 | 0.00 | 67 | 1008.9 |
| 20260508103058 | 39 | 254 | 2.0 | 4.0 | 0.00 | 0.00 | 0.00 | 70 | 1008.7 |
| 20260508101556 | 39 | 265 | 2.0 | 4.0 | 0.00 | 0.00 | 0.00 | 70 | 1008.5 |
| 20260508094551 | 39 | 230 | 2.0 | 6.0 | 0.00 | 0.00 | 0.00 | 68 | 1008.3 |
| 20260508093048 | 39 | 248 | 2.0 | 4.0 | 0.00 | 0.00 | 0.00 | 67 | 1008.1 |
| 20260508091605 | 39 | 248 | 1.0 | 4.0 | 0.00 | 0.00 | 0.00 | 66 | 1007.9 |
| 20260508090051 | 39 | 264 | 2.0 | 4.0 | 0.00 | 0.00 | 0.00 | 65 | 1007.7 |
| 20260508084546 | 40 | 257 | 2.0 | 4.0 | 0.00 | 0.00 | 0.00 | 64 | 1007.6 |
| 20260508083050 | 40 | 248 | 2.0 | 6.0 | 0.00 | 0.00 | 0.00 | 64 | 1007.5 |
| 20260508081608 | 40 | 261 | 2.0 | 4.0 | 0.00 | 0.00 | 0.00 | 62 | 1007.5 |
| 20260508080050 | 40 | 250 | 2.0 | 4.0 | 0.00 | 0.00 | 0.00 | 62 | 1007.4 |
| 20260508074549 | 41 | 267 | 1.0 | 6.0 | 0.00 | 0.00 | 0.00 | 62 | 1007.2 |
| 20260508073056 | 41 | 275 | 2.0 | 6.0 | 0.00 | 0.00 | 0.00 | 62 | 1007.3 |
| 20260508071547 | 41 | 299 | 3.0 | 6.0 | 0.00 | 0.00 | 0.00 | 61 | 1007.3 |
| 20260508070052 | 41 | 240 | 3.0 | 7.0 | 0.00 | 0.00 | 0.00 | 58 | 1007.3 |
| 20260508064549 | 42 | 300 | 2.0 | 7.0 | 0.00 | 0.00 | 0.00 | 58 | 1007.3 |
| 20260508063057 | 42 | 269 | 1.0 | 7.0 | 0.00 | 0.00 | 0.00 | 57 | 1007.5 |
| 20260508061552 | 42 | 301 | 2.0 | 4.0 | 0.00 | 0.00 | 0.00 | 56 | 1007.7 |
| 20260508060100 | 42 | 345 | 0.0 | 3.0 | 0.00 | 0.00 | 0.00 | 56 | 1007.9 |
| 20260508054636 | 43 | 0 | 2.0 | 5.0 | 0.00 | 0.00 | 0.00 | 54 | 1007.9 |
| 20260508053052 | 43 | 355 | 2.0 | 6.0 | 0.00 | 0.00 | 0.00 | 54 | 1008.2 |
| 20260508051548 | 43 | 351 | 1.0 | 7.0 | 0.00 | 0.00 | 0.00 | 54 | 1008.1 |
| 20260508050050 | 43 | 341 | 3.0 | 8.0 | 0.00 | 0.00 | 0.00 | 53 | 1008.2 |
| 20260508044547 | 44 | 282 | 2.0 | 8.0 | 0.00 | 0.11 | 0.00 | 54 | 1008.1 |
| 20260508043052 | 44 | 351 | 2.0 | 8.0 | 0.00 | 0.11 | 0.00 | 55 | 1008.2 |
| 20260508041545 | 44 | 290 | 1.0 | 6.0 | 0.00 | 0.11 | 0.00 | 53 | 1008.5 |
| 20260508040051 | 45 | 315 | 1.0 | 5.0 | 0.00 | 0.11 | 0.00 | 53 | 1008.5 |
| 20260508034553 | 46 | 260 | 2.0 | 4.0 | 0.00 | 0.12 | 0.11 | 50 | 1008.4 |
| 20260508033049 | 46 | 255 | 2.0 | 6.0 | 0.00 | 0.12 | 0.11 | 50 | 1008.4 |
| 20260508031556 | 46 | 336 | 2.0 | 5.0 | 0.00 | 0.12 | 0.11 | 48 | 1008.3 |
| 20260508030104 | 47 | 349 | 2.0 | 9.0 | 0.00 | 0.12 | 0.11 | 49 | 1008.3 |
| 20260508024607 | 47 | 347 | 2.0 | 5.0 | 0.00 | 0.12 | 0.11 | 49 | 1008.3 |
| 20260508023054 | 48 | 11 | 1.0 | 8.0 | 0.00 | 0.12 | 0.11 | 46 | 1008.2 |
| 20260508021551 | 48 | 343 | 1.0 | 11.0 | 0.00 | 0.12 | 0.11 | 46 | 1008.0 |
| 20260508020104 | 48 | 340 | 2.0 | 7.0 | 0.00 | 0.12 | 0.11 | 46 | 1007.9 |
| 20260508014602 | 49 | 29 | 4.0 | 10.0 | 0.00 | 0.13 | 0.11 | 44 | 1007.8 |
| 20260508013059 | 50 | 38 | 6.0 | 13.0 | 0.00 | 0.13 | 0.11 | 43 | 1007.7 |
| 20260508011552 | 50 | 311 | 4.0 | 12.0 | 0.00 | 0.13 | 0.11 | 43 | 1007.4 |
| 20260508010106 | 51 | 329 | 3.0 | 9.0 | 0.00 | 0.13 | 0.11 | 42 | 1007.3 |
| 20260508004557 | 51 | 338 | 3.0 | 10.0 | 0.00 | 0.13 | 0.11 | 41 | 1007.0 |
| 20260508003053 | 52 | 313 | 2.0 | 6.0 | 0.00 | 0.13 | 0.11 | 40 | 1006.8 |
| 20260508001547 | 53 | 331 | 2.0 | 9.0 | 0.00 | 0.13 | 0.11 | 39 | 1006.5 |
| 20260508000051 | 53 | 321 | 4.0 | 10.0 | 0.00 | 0.13 | 0.11 | 37 | 1006.4 |
| 20260507234550 | 54 | 55 | 3.0 | 9.0 | 0.00 | 0.13 | 0.11 | 35 | 1006.3 |
| 20260507233052 | 55 | 295 | 3.0 | 13.0 | 0.00 | 0.13 | 0.11 | 34 | 1006.1 |
| 20260507231549 | 56 | 275 | 5.0 | 14.0 | 0.00 | 0.13 | 0.11 | 34 | 1006.0 |
| 20260507230047 | 57 | 349 | 5.0 | 13.0 | 0.00 | 0.13 | 0.11 | 34 | 1005.7 |
| 20260507224547 | 56 | 267 | 2.0 | 11.0 | 0.00 | 0.13 | 0.11 | 36 | 1005.5 |
| 20260507223046 | 57 | 327 | 3.0 | 12.0 | 0.00 | 0.13 | 0.11 | 35 | 1005.3 |
| 20260507221548 | 58 | 256 | 9.0 | 17.0 | 0.00 | 0.13 | 0.11 | 33 | 1005.2 |
| 20260507220049 | 59 | 287 | 5.0 | 11.0 | 0.00 | 0.13 | 0.11 | 32 | 1005.1 |
| 20260507214550 | 59 | 277 | 6.0 | 17.0 | 0.00 | 0.15 | 0.11 | 33 | 1005.2 |
| 20260507213051 | 59 | 300 | 8.0 | 21.0 | 0.00 | 0.15 | 0.11 | 33 | 1005.1 |
| 20260507211554 | 59 | 243 | 5.0 | 15.0 | 0.00 | 0.15 | 0.11 | 34 | 1005.0 |
| 20260507210049 | 59 | 274 | 6.0 | 15.0 | 0.00 | 0.15 | 0.11 | 33 | 1004.9 |
| 20260507204548 | 59 | 259 | 9.0 | 18.0 | 0.00 | 0.24 | 0.11 | 33 | 1004.9 |
| 20260507203047 | 59 | 252 | 7.0 | 17.0 | 0.00 | 0.24 | 0.11 | 33 | 1004.9 |
| 20260507201545 | 59 | 244 | 7.0 | 16.0 | 0.00 | 0.24 | 0.11 | 35 | 1004.9 |
| 20260507200051 | 59 | 279 | 5.0 | 17.0 | 0.00 | 0.24 | 0.11 | 35 | 1005.0 |
| 20260507194549 | 59 | 301 | 4.0 | 17.0 | 0.00 | 0.34 | 0.11 | 34 | 1005.0 |
| 20260507193049 | 57 | 273 | 7.0 | 20.0 | 0.00 | 0.34 | 0.11 | 37 | 1005.0 |
| 20260507191553 | 59 | 306 | 10.0 | 20.0 | 0.00 | 0.34 | 0.11 | 34 | 1005.1 |
| 20260507190052 | 59 | 286 | 10.0 | 26.0 | 0.00 | 0.34 | 0.11 | 35 | 1005.2 |
| 20260507184548 | 58 | 275 | 8.0 | 21.0 | 0.00 | 0.43 | 0.11 | 36 | 1005.3 |
| 20260507183049 | 58 | 103 | 8.0 | 17.0 | 0.00 | 0.43 | 0.11 | 44 | 1005.3 |
| 20260507181552 | 59 | 232 | 9.0 | 19.0 | 0.00 | 0.43 | 0.11 | 42 | 1005.4 |
| 20260507180057 | 58 | 306 | 9.0 | 21.0 | 0.00 | 0.43 | 0.11 | 49 | 1005.4 |
| 20260507174604 | 57 | 241 | 11.0 | 21.0 | 0.00 | 0.43 | 0.11 | 51 | 1005.5 |
| 20260507173100 | 58 | 304 | 11.0 | 21.0 | 0.00 | 0.43 | 0.11 | 48 | 1005.4 |
| 20260507171610 | 58 | 235 | 8.0 | 19.0 | 0.00 | 0.43 | 0.11 | 51 | 1005.3 |
| 20260507170054 | 56 | 257 | 8.0 | 18.0 | 0.00 | 0.43 | 0.11 | 55 | 1005.6 |
| 20260507164552 | 56 | 225 | 7.0 | 13.0 | 0.00 | 0.43 | 0.11 | 54 | 1005.6 |
| 20260507163054 | 56 | 240 | 6.0 | 13.0 | 0.00 | 0.43 | 0.11 | 55 | 1005.6 |
| 20260507161550 | 56 | 258 | 5.0 | 12.0 | 0.00 | 0.43 | 0.11 | 53 | 1005.9 |
| 20260507160058 | 57 | 349 | 5.0 | 13.0 | 0.00 | 0.43 | 0.11 | 53 | 1006.2 |
| 20260507154554 | 56 | 189 | 9.0 | 17.0 | 0.00 | 0.43 | 0.11 | 53 | 1006.5 |
| 20260507153101 | 57 | 273 | 5.0 | 16.0 | 0.00 | 0.43 | 0.11 | 56 | 1006.5 |
| 20260507151551 | 56 | 204 | 8.0 | 13.0 | 0.00 | 0.43 | 0.11 | 54 | 1006.6 |
| 20260507150050 | 55 | 245 | 4.0 | 11.0 | 0.00 | 0.43 | 0.11 | 59 | 1006.6 |
| 20260507144553 | 55 | 310 | 3.0 | 13.0 | 0.00 | 0.43 | 0.11 | 62 | 1006.7 |
| 20260507143052 | 55 | 290 | 2.0 | 9.0 | 0.00 | 0.43 | 0.11 | 65 | 1006.8 |
| 20260507141551 | 53 | 267 | 5.0 | 13.0 | 0.00 | 0.43 | 0.11 | 67 | 1007.1 |